| time (UTC) | temp F | wind direction | speed knots | gust knots | rain 1hr in | rain 24hr in | rain mn in | humidity % | barometer mb |
| 20260504235054 | 73 | 180 | 0.0 | 0.9 | 0.00 | 0.00 | 0.00 | 38 | 981.9 |
| 20260504234549 | 73 | 212 | 0.0 | 1.7 | 0.00 | 0.00 | 0.00 | 37 | 982.1 |
| 20260504234044 | 73 | 199 | 0.9 | 1.7 | 0.00 | 0.00 | 0.00 | 39 | 982.0 |
| 20260504233539 | 74 | 196 | 1.7 | 1.7 | 0.00 | 0.00 | 0.00 | 39 | 981.9 |
| 20260504233034 | 74 | 214 | 0.0 | 1.7 | 0.00 | 0.00 | 0.00 | 38 | 982.0 |
| 20260504232529 | 75 | 224 | 0.0 | 1.7 | 0.00 | 0.00 | 0.00 | 36 | 982.2 |
| 20260504232029 | 75 | 300 | 1.7 | 1.7 | 0.00 | 0.00 | 0.00 | 35 | 982.1 |
| 20260504231518 | 75 | 212 | 0.0 | 1.7 | 0.00 | 0.00 | 0.00 | 36 | 982.0 |
| 20260504231014 | 75 | 290 | 0.0 | 3.5 | 0.00 | 0.00 | 0.00 | 36 | 982.1 |
| 20260504230508 | 76 | 319 | 0.9 | 3.5 | 0.00 | 0.00 | 0.00 | 33 | 982.3 |
| 20260504230004 | 77 | 223 | 1.7 | 1.7 | 0.00 | 0.00 | 0.00 | 34 | 982.4 |
| 20260504225600 | 77 | 89 | 1.7 | 2.6 | 0.00 | 0.00 | 0.00 | 33 | 982.2 |
| 20260504225055 | 78 | 225 | 0.0 | 1.7 | 0.00 | 0.00 | 0.00 | 31 | 982.2 |
| 20260504224550 | 78 | 138 | 0.9 | 1.7 | 0.00 | 0.00 | 0.00 | 31 | 982.1 |
| 20260504224045 | 79 | 27 | 1.7 | 3.5 | 0.00 | 0.00 | 0.00 | 31 | 982.3 |
| 20260504223541 | 79 | 127 | 1.7 | 4.3 | 0.00 | 0.00 | 0.00 | 33 | 982.4 |
| 20260504223036 | 79 | 249 | 0.9 | 7.8 | 0.00 | 0.00 | 0.00 | 32 | 982.3 |
| 20260504222530 | 80 | 123 | 0.0 | 3.5 | 0.00 | 0.00 | 0.00 | 31 | 982.3 |
| 20260504222026 | 79 | 253 | 1.7 | 2.6 | 0.00 | 0.00 | 0.00 | 33 | 982.4 |
| 20260504221521 | 78 | 82 | 1.7 | 3.5 | 0.00 | 0.00 | 0.00 | 34 | 982.2 |
| 20260504221016 | 79 | 301 | 1.7 | 3.5 | 0.00 | 0.00 | 0.00 | 34 | 982.2 |
| 20260504220511 | 78 | 197 | 0.0 | 1.7 | 0.00 | 0.00 | 0.00 | 36 | 982.3 |
| 20260504220005 | 77 | 245 | 0.0 | 1.7 | 0.00 | 0.00 | 0.00 | 36 | 982.4 |
| 20260504215101 | 77 | 259 | 1.7 | 1.7 | 0.00 | 0.00 | 0.00 | 33 | 982.1 |
| 20260504214551 | 78 | 318 | 2.6 | 2.6 | 0.00 | 0.00 | 0.00 | 31 | 982.3 |
| 20260504214051 | 78 | 60 | 0.9 | 3.5 | 0.00 | 0.00 | 0.00 | 32 | 982.1 |
| 20260504213542 | 77 | 204 | 0.0 | 1.7 | 0.00 | 0.00 | 0.00 | 34 | 982.1 |
| 20260504213041 | 76 | 283 | 0.0 | 1.7 | 0.00 | 0.00 | 0.00 | 36 | 982.2 |
| 20260504212532 | 77 | 147 | 1.7 | 2.6 | 0.00 | 0.00 | 0.00 | 36 | 982.2 |
| 20260504212032 | 77 | 154 | 0.0 | 1.7 | 0.00 | 0.00 | 0.00 | 35 | 982.2 |
| 20260504211527 | 79 | 89 | 0.0 | 3.5 | 0.00 | 0.00 | 0.00 | 30 | 982.2 |
| 20260504211016 | 80 | 318 | 2.6 | 4.3 | 0.00 | 0.00 | 0.00 | 28 | 982.2 |
| 20260504210512 | 79 | 275 | 1.7 | 1.7 | 0.00 | 0.00 | 0.00 | 31 | 982.1 |
| 20260504210006 | 77 | 232 | 0.0 | 1.7 | 0.00 | 0.00 | 0.00 | 33 | 982.3 |
| 20260504205501 | 77 | 139 | 1.7 | 4.3 | 0.00 | 0.00 | 0.00 | 34 | 982.4 |
| 20260504205058 | 77 | 336 | 0.0 | 2.6 | 0.00 | 0.00 | 0.00 | 32 | 982.4 |
| 20260504204552 | 77 | 232 | 1.7 | 3.5 | 0.00 | 0.00 | 0.00 | 32 | 982.6 |
| 20260504204048 | 78 | 81 | 1.7 | 5.2 | 0.00 | 0.00 | 0.00 | 30 | 982.6 |
| 20260504203542 | 79 | 258 | 2.6 | 5.2 | 0.00 | 0.00 | 0.00 | 30 | 982.5 |
| 20260504203037 | 79 | 139 | 0.9 | 3.5 | 0.00 | 0.00 | 0.00 | 29 | 982.6 |
| 20260504202532 | 79 | 289 | 2.6 | 3.5 | 0.00 | 0.00 | 0.00 | 31 | 982.7 |
| 20260504202032 | 78 | 300 | 0.9 | 3.5 | 0.00 | 0.00 | 0.00 | 28 | 982.5 |
| 20260504201527 | 78 | 117 | 1.7 | 3.5 | 0.00 | 0.00 | 0.00 | 28 | 983.0 |
| 20260504201017 | 78 | 265 | 0.0 | 6.1 | 0.00 | 0.00 | 0.00 | 27 | 982.8 |
| 20260504200517 | 79 | 289 | 8.7 | 8.7 | 0.00 | 0.00 | 0.00 | 29 | 982.8 |
| 20260504200012 | 78 | 259 | 1.7 | 2.6 | 0.00 | 0.00 | 0.00 | 28 | 983.1 |
| 20260504195501 | 79 | 240 | 0.9 | 4.3 | 0.00 | 0.00 | 0.00 | 30 | 983.0 |
| 20260504195057 | 78 | 232 | 2.6 | 2.6 | 0.00 | 0.00 | 0.00 | 29 | 982.8 |
| 20260504194553 | 78 | 94 | 4.3 | 5.2 | 0.00 | 0.00 | 0.00 | 30 | 983.1 |
| 20260504194048 | 79 | 95 | 1.7 | 4.3 | 0.00 | 0.00 | 0.00 | 29 | 983.1 |
| 20260504193544 | 81 | 283 | 2.6 | 4.3 | 0.00 | 0.00 | 0.00 | 30 | 983.2 |
| 20260504193044 | 81 | 180 | 1.7 | 3.5 | 0.00 | 0.00 | 0.00 | 29 | 983.3 |
| 20260504192533 | 79 | 227 | 1.7 | 4.3 | 0.00 | 0.00 | 0.00 | 32 | 983.4 |
| 20260504192033 | 80 | 331 | 2.6 | 3.5 | 0.00 | 0.00 | 0.00 | 31 | 983.3 |
| 20260504191523 | 79 | 95 | 0.0 | 4.3 | 0.00 | 0.00 | 0.00 | 33 | 983.6 |
| 20260504191018 | 79 | 349 | 1.7 | 2.6 | 0.00 | 0.00 | 0.00 | 31 | 983.6 |
| 20260504190518 | 80 | 146 | 1.7 | 3.5 | 0.00 | 0.00 | 0.00 | 31 | 983.8 |
| 20260504190008 | 78 | 101 | 1.7 | 3.5 | 0.00 | 0.00 | 0.00 | 31 | 983.6 |
| 20260504185503 | 78 | 229 | 3.5 | 3.5 | 0.00 | 0.00 | 0.00 | 29 | 983.7 |
| 20260504185059 | 76 | 124 | 0.0 | 3.5 | 0.00 | 0.00 | 0.00 | 31 | 983.9 |
| 20260504184555 | 77 | 85 | 3.5 | 4.3 | 0.00 | 0.00 | 0.00 | 31 | 984.0 |
| 20260504184049 | 77 | 328 | 2.6 | 7.0 | 0.00 | 0.00 | 0.00 | 31 | 983.9 |
| 20260504183545 | 77 | 304 | 2.6 | 3.5 | 0.00 | 0.00 | 0.00 | 32 | 984.0 |
| 20260504183039 | 78 | 252 | 3.5 | 3.5 | 0.00 | 0.00 | 0.00 | 30 | 984.2 |
| 20260504182534 | 77 | 264 | 0.9 | 2.6 | 0.00 | 0.00 | 0.00 | 30 | 984.3 |
| 20260504182030 | 76 | 222 | 1.7 | 3.5 | 0.00 | 0.00 | 0.00 | 33 | 984.2 |
| 20260504181524 | 76 | 103 | 3.5 | 4.3 | 0.00 | 0.00 | 0.00 | 33 | 984.3 |
| 20260504181019 | 77 | 66 | 0.0 | 2.6 | 0.00 | 0.00 | 0.00 | 30 | 984.6 |
| 20260504180515 | 77 | 168 | 1.7 | 3.5 | 0.00 | 0.00 | 0.00 | 30 | 984.4 |
| 20260504180014 | 76 | 319 | 1.7 | 2.6 | 0.00 | 0.00 | 0.00 | 34 | 984.5 |
| 20260504175510 | 77 | 313 | 3.5 | 5.2 | 0.00 | 0.00 | 0.00 | 31 | 984.6 |
| 20260504175100 | 76 | 221 | 1.7 | 4.3 | 0.00 | 0.00 | 0.00 | 32 | 984.6 |
| 20260504174555 | 76 | 297 | 1.7 | 4.3 | 0.00 | 0.00 | 0.00 | 35 | 984.7 |
| 20260504174055 | 75 | 75 | 1.7 | 3.5 | 0.00 | 0.00 | 0.00 | 36 | 984.5 |
| 20260504173551 | 74 | 272 | 1.7 | 6.1 | 0.00 | 0.00 | 0.00 | 34 | 984.9 |
| 20260504173041 | 75 | 211 | 3.5 | 5.2 | 0.00 | 0.00 | 0.00 | 33 | 985.0 |
| 20260504172540 | 76 | 12 | 0.9 | 5.2 | 0.00 | 0.00 | 0.00 | 34 | 985.0 |
| 20260504172030 | 75 | 122 | 2.6 | 3.5 | 0.00 | 0.00 | 0.00 | 32 | 984.9 |
| 20260504171526 | 75 | 333 | 2.6 | 3.5 | 0.00 | 0.00 | 0.00 | 37 | 984.9 |
| 20260504171021 | 75 | 195 | 2.6 | 4.3 | 0.00 | 0.00 | 0.00 | 34 | 985.1 |
| 20260504170515 | 74 | 116 | 1.7 | 6.1 | 0.00 | 0.00 | 0.00 | 34 | 985.1 |
| 20260504151021 | 68 | 285 | 1.7 | 5.2 | 0.00 | 0.00 | 0.00 | 43 | 986.2 |
| 20260504150521 | 68 | 223 | 0.9 | 4.3 | 0.00 | 0.00 | 0.00 | 44 | 986.2 |
| 20260504141022 | 66 | 298 | 2.6 | 4.3 | 0.00 | 0.00 | 0.00 | 46 | 986.7 |
| 20260504140518 | 66 | 215 | 2.6 | 3.5 | 0.00 | 0.00 | 0.00 | 47 | 986.5 |
| 20260504130519 | 61 | 179 | 0.0 | 0.9 | 0.00 | 0.00 | 0.00 | 63 | 986.6 |
| 20260504110521 | 43 | 94 | 0.9 | 1.7 | 0.00 | 0.00 | 0.00 | 94 | 985.8 |
| 20260504100527 | 45 | 49 | 0.0 | 0.9 | 0.00 | 0.00 | 0.00 | 91 | 985.7 |
| 20260504081533 | 45 | 76 | 0.0 | 0.9 | 0.00 | 0.00 | 0.00 | 87 | 985.9 |
| 20260504081028 | 45 | 69 | 0.0 | 0.9 | 0.00 | 0.00 | 0.00 | 86 | 985.8 |
| 20260504080523 | 45 | 63 | 0.0 | 0.9 | 0.00 | 0.00 | 0.00 | 86 | 985.7 |
| 20260504050526 | 51 | 91 | 0.0 | 0.9 | 0.00 | 0.00 | 0.00 | 72 | 986.4 |
| 20260504050021 | 51 | 119 | 0.0 | 0.9 | 0.00 | 0.00 | 0.00 | 71 | 986.4 |
| 20260504045516 | 51 | 130 | 0.0 | 0.9 | 0.00 | 0.00 | 0.00 | 70 | 986.6 |
| 20260504045011 | 51 | 110 | 0.0 | 0.9 | 0.00 | 0.00 | 0.00 | 71 | 986.7 |
| 20260504044511 | 52 | 119 | 0.0 | 0.9 | 0.00 | 0.00 | 0.00 | 72 | 986.5 |
| 20260504044000 | 52 | 339 | 0.0 | 0.0 | 0.00 | 0.00 | 0.00 | 71 | 986.4 |
| 20260504043602 | 52 | 303 | 0.0 | 0.9 | 0.00 | 0.00 | 0.00 | 71 | 986.5 |
| 20260504043052 | 52 | 237 | 0.0 | 0.0 | 0.00 | 0.00 | 0.00 | 71 | 986.6 |
| 20260504042553 | 52 | 306 | 0.0 | 0.9 | 0.00 | 0.00 | 0.00 | 71 | 986.6 |
| 20260504042042 | 52 | 66 | 0.0 | 0.0 | 0.00 | 0.00 | 0.00 | 70 | 986.4 |
| 20260504041537 | 52 | 103 | 0.0 | 0.9 | 0.00 | 0.00 | 0.00 | 70 | 986.5 |
| 20260504041032 | 52 | 315 | 0.0 | 0.0 | 0.00 | 0.00 | 0.00 | 67 | 986.4 |
| 20260504040533 | 53 | 296 | 0.0 | 0.0 | 0.00 | 0.00 | 0.00 | 68 | 986.5 |
| 20260504040022 | 53 | 291 | 0.0 | 0.9 | 0.00 | 0.00 | 0.00 | 66 | 986.4 |
| 20260504035517 | 53 | 300 | 0.9 | 0.9 | 0.00 | 0.00 | 0.00 | 66 | 986.5 |
| 20260504035011 | 53 | 301 | 0.9 | 0.9 | 0.00 | 0.00 | 0.00 | 66 | 986.3 |
| 20260504034507 | 54 | 320 | 0.0 | 0.9 | 0.00 | 0.00 | 0.00 | 67 | 986.5 |
| 20260504034002 | 54 | 309 | 0.0 | 0.9 | 0.00 | 0.00 | 0.00 | 65 | 986.5 |
| 20260504033558 | 54 | 256 | 0.0 | 0.9 | 0.00 | 0.00 | 0.00 | 65 | 986.5 |
| 20260504033058 | 54 | 293 | 0.0 | 1.7 | 0.00 | 0.00 | 0.00 | 65 | 986.7 |
| 20260504032548 | 54 | 53 | 0.0 | 0.9 | 0.00 | 0.00 | 0.00 | 64 | 986.6 |
| 20260504032043 | 54 | 232 | 0.0 | 1.7 | 0.00 | 0.00 | 0.00 | 64 | 986.6 |
| 20260504031538 | 54 | 343 | 0.0 | 0.9 | 0.00 | 0.00 | 0.00 | 65 | 986.5 |
| 20260504031033 | 55 | 291 | 1.7 | 1.7 | 0.00 | 0.00 | 0.00 | 65 | 986.8 |
| 20260504030527 | 55 | 299 | 0.0 | 0.9 | 0.00 | 0.00 | 0.00 | 64 | 986.4 |
| 20260504030023 | 55 | 299 | 0.0 | 0.9 | 0.00 | 0.00 | 0.00 | 61 | 986.5 |
| 20260504025518 | 56 | 306 | 0.0 | 0.0 | 0.00 | 0.00 | 0.00 | 61 | 986.4 |
| 20260504025013 | 56 | 130 | 0.0 | 0.9 | 0.00 | 0.00 | 0.00 | 58 | 986.3 |
| 20260504024508 | 56 | 212 | 0.0 | 0.9 | 0.00 | 0.00 | 0.00 | 58 | 986.3 |
| 20260504024003 | 56 | 209 | 0.9 | 1.7 | 0.00 | 0.00 | 0.00 | 59 | 986.4 |
| 20260504023559 | 56 | 162 | 0.0 | 0.9 | 0.00 | 0.00 | 0.00 | 58 | 986.3 |
| 20260504023059 | 56 | 280 | 0.9 | 1.7 | 0.00 | 0.00 | 0.00 | 59 | 986.1 |
| 20260504022549 | 56 | 230 | 0.0 | 0.9 | 0.00 | 0.00 | 0.00 | 58 | 986.1 |
| 20260504022049 | 56 | 234 | 0.0 | 1.7 | 0.00 | 0.00 | 0.00 | 60 | 986.1 |
| 20260504021544 | 56 | 205 | 0.0 | 0.9 | 0.00 | 0.00 | 0.00 | 60 | 986.0 |
| 20260504021034 | 56 | 224 | 0.0 | 0.9 | 0.00 | 0.00 | 0.00 | 60 | 986.0 |
| 20260504020529 | 56 | 244 | 0.0 | 1.7 | 0.00 | 0.00 | 0.00 | 58 | 985.7 |
| 20260504020024 | 56 | 103 | 0.0 | 0.9 | 0.00 | 0.00 | 0.00 | 61 | 985.7 |
| 20260504015519 | 56 | 152 | 0.0 | 0.0 | 0.00 | 0.00 | 0.00 | 58 | 985.7 |
| 20260504015014 | 57 | 124 | 0.0 | 0.0 | 0.00 | 0.00 | 0.00 | 58 | 985.7 |
| 20260504014508 | 57 | 129 | 0.0 | 0.9 | 0.00 | 0.00 | 0.00 | 56 | 985.6 |
| 20260504014004 | 57 | 13 | 0.0 | 0.0 | 0.00 | 0.00 | 0.00 | 57 | 985.4 |
| 20260504013600 | 57 | 154 | 0.0 | 0.0 | 0.00 | 0.00 | 0.00 | 58 | 985.4 |
| 20260504013055 | 57 | 154 | 0.0 | 0.0 | 0.00 | 0.00 | 0.00 | 59 | 985.5 |
| 20260504012555 | 57 | 129 | 0.0 | 0.0 | 0.00 | 0.00 | 0.00 | 56 | 985.4 |
| 20260504012045 | 58 | 119 | 0.0 | 0.9 | 0.00 | 0.00 | 0.00 | 56 | 985.2 |
| 20260504011540 | 58 | 119 | 0.0 | 0.9 | 0.00 | 0.00 | 0.00 | 55 | 985.1 |
| 20260504011035 | 59 | 44 | 0.0 | 0.9 | 0.00 | 0.00 | 0.00 | 55 | 985.2 |
| 20260504010530 | 59 | 309 | 0.0 | 0.0 | 0.00 | 0.00 | 0.00 | 52 | 985.1 |
| 20260504010025 | 59 | 310 | 0.0 | 0.0 | 0.00 | 0.00 | 0.00 | 53 | 985.0 |
| 20260504005520 | 60 | 306 | 0.0 | 0.0 | 0.00 | 0.00 | 0.00 | 53 | 985.0 |
| 20260504005015 | 60 | 298 | 0.9 | 1.7 | 0.00 | 0.00 | 0.00 | 53 | 985.1 |
| 20260504004510 | 60 | 322 | 0.0 | 0.9 | 0.00 | 0.00 | 0.00 | 52 | 984.9 |
| 20260504004005 | 60 | 32 | 0.0 | 0.0 | 0.00 | 0.00 | 0.00 | 53 | 985.1 |
| 20260504003605 | 61 | 309 | 0.0 | 0.9 | 0.00 | 0.00 | 0.00 | 53 | 984.7 |
| 20260504003100 | 61 | 129 | 0.0 | 0.0 | 0.00 | 0.00 | 0.00 | 51 | 984.9 |
| 20260504002550 | 62 | 130 | 0.0 | 0.9 | 0.00 | 0.00 | 0.00 | 50 | 984.7 |
| 20260504002045 | 62 | 114 | 0.0 | 0.9 | 0.00 | 0.00 | 0.00 | 49 | 984.8 |
| 20260504001545 | 63 | 142 | 0.0 | 0.9 | 0.00 | 0.00 | 0.00 | 46 | 984.8 |
| 20260504001035 | 63 | 157 | 0.0 | 0.0 | 0.00 | 0.00 | 0.00 | 47 | 984.7 |
| 20260504000530 | 64 | 142 | 0.0 | 0.9 | 0.00 | 0.00 | 0.00 | 45 | 984.6 |
| 20260504000025 | 64 | 124 | 0.0 | 0.0 | 0.00 | 0.00 | 0.00 | 44 | 984.7 |
| 20260503235520 | 65 | 150 | 0.0 | 1.7 | 0.00 | 0.00 | 0.00 | 44 | 984.5 |